Location: Bougoura
(13.1861°N, 5.0773°W)
Time: 03:38:27
(UTC+00:00)

Delta 168 - Pass Details

Date: 18 September 2020
Orbit: 394 x 2050 km, 25.3° (Epoch: 23 October)

Event Time Altitude Azimuth Distance (km) Brightness Sun altitude
Rises 19:03:38 0° 302° (WNW) 3,030 7.8 -11.7°
Reaches altitude 10° 19:06:45 10° 316° (NW) 1,863 6.2 -12.4°
Maximum altitude 19:10:01 22° 9° (N) 1,078 4.3 -13.2°
Enters shadow 19:11:45 16° 50° (NE) 1,250 4.2 -13.7°
